SITE: BDASc,YEAR: 2000,,,,,
2000 Date,Time,pzhd (cm),DWT (cm),WT elev (m),,Notes
01/01/00,0:00,198.6,200.6,1371.423,,Depth to water table:
01/01/00,0:30,198.6,200.6,1371.423,,DWT = SCL - CH - h
01/01/00,1:00,198.6,200.6,1371.423,,where
01/01/00,1:30,198.6,200.6,1371.423,,SCL = sensor cable length = 550.7 cm
01/01/00,2:00,198.6,200.6,1371.423,,CH = casing height of well = 151.5 cm
01/01/00,2:30,198.5,200.7,1371.422,,h = height of water above sensor (from pzhd cm column)
01/01/00,3:00,198.5,200.7,1371.422,,
01/01/00,3:30,198.6,200.6,1371.423,,WT elevation:
01/01/00,4:00,198.6,200.6,1371.423,,Sensor elev = 1369.437 m asl
01/01/00,4:30,198.6,200.6,1371.423,,WT elev = sensor elev + h (from pzhd column)
01/01/00,5:00,198.6,200.6,1371.423,,
01/01/00,5:30,198.5,200.7,1371.422,,
01/01/00,6:00,198.5,200.7,1371.422,,Dates w/missing data (#0.5 hr data points):
01/01/00,6:30,198.5,200.7,1371.422,,"1/11 (10), 1/16--17 (24), 2/3 (24), 2/12 (24), 2/14 (16),"
01/01/00,7:00,198.5,200.7,1371.422,,"3/13 (10), 3/28 (18), 3/31 (14)."
01/01/00,7:30,198.4,200.8,1371.421,,
01/01/00,8:00,198.5,200.7,1371.422,,
01/01/00,8:30,198.4,200.8,1371.421,,
01/01/00,9:00,198.5,200.7,1371.422,,
01/01/00,9:30,198.5,200.7,1371.422,,
01/01/00,10:00,198.5,200.7,1371.422,,
01/01/00,10:30,198.7,200.5,1371.424,,
01/01/00,11:00,198.7,200.5,1371.424,,
01/01/00,11:30,198.8,200.4,1371.425,,
01/01/00,12:00,198.8,200.4,1371.425,,
01/01/00,12:30,198.8,200.4,1371.425,,
01/01/00,13:00,198.9,200.3,1371.426,,
01/01/00,13:30,198.9,200.3,1371.426,,
01/01/00,14:00,198.9,200.3,1371.426,,
01/01/00,14:30,198.8,200.4,1371.425,,
01/01/00,15:00,198.8,200.4,1371.425,,
01/01/00,15:30,198.6,200.6,1371.423,,
01/01/00,16:00,198.5,200.7,1371.422,,
01/01/00,16:30,198.5,200.7,1371.422,,
01/01/00,17:00,198.3,200.9,1371.420,,
01/01/00,17:30,198.2,201.0,1371.419,,
01/01/00,18:00,198.1,201.1,1371.418,,
01/01/00,18:30,198.1,201.1,1371.418,,
01/01/00,19:00,198.1,201.1,1371.418,,
01/01/00,19:30,198.0,201.2,1371.417,,
01/01/00,20:00,198.0,201.2,1371.417,,
01/01/00,20:30,198.1,201.1,1371.418,,
01/01/00,21:00,198.0,201.2,1371.417,,
01/01/00,21:30,198.0,201.2,1371.417,,
01/01/00,22:00,198.0,201.2,1371.417,,
01/01/00,22:30,198.0,201.2,1371.417,,
01/01/00,23:00,198.0,201.2,1371.417,,
01/01/00,23:30,197.9,201.3,1371.416,,
01/02/00,0:00,198.0,201.2,1371.417,,
01/02/00,0:30,198.0,201.2,1371.417,,
01/02/00,1:00,198.0,201.2,1371.417,,
01/02/00,1:30,198.0,201.2,1371.417,,
01/02/00,2:00,198.0,201.2,1371.417,,
01/02/00,2:30,197.9,201.3,1371.416,,
01/02/00,3:00,197.8,201.4,1371.415,,
01/02/00,3:30,197.9,201.3,1371.416,,
01/02/00,4:00,198.0,201.2,1371.417,,
01/02/00,4:30,198.0,201.2,1371.417,,
01/02/00,5:00,198.1,201.1,1371.418,,
01/02/00,5:30,198.0,201.2,1371.417,,
01/02/00,6:00,197.9,201.3,1371.416,,
01/02/00,6:30,197.9,201.3,1371.416,,
01/02/00,7:00,197.9,201.3,1371.416,,
01/02/00,7:30,197.8,201.4,1371.415,,
01/02/00,8:00,197.8,201.4,1371.415,,
01/02/00,8:30,197.8,201.4,1371.415,,
01/02/00,9:00,197.9,201.3,1371.416,,
01/02/00,9:30,197.9,201.3,1371.416,,
01/02/00,10:00,198.0,201.2,1371.417,,
01/02/00,10:30,198.2,201.0,1371.419,,
01/02/00,11:00,198.3,200.9,1371.420,,
01/02/00,11:30,198.5,200.7,1371.422,,
01/02/00,12:00,198.7,200.5,1371.424,,
01/02/00,12:30,198.9,200.3,1371.426,,
01/02/00,13:00,199.1,200.1,1371.428,,
01/02/00,13:30,199.2,200.0,1371.429,,
01/02/00,14:00,199.1,200.1,1371.428,,
01/02/00,14:30,199.0,200.2,1371.427,,
01/02/00,15:00,199.0,200.2,1371.427,,
01/02/00,15:30,198.8,200.4,1371.425,,
01/02/00,16:00,198.8,200.4,1371.425,,
01/02/00,16:30,198.5,200.7,1371.422,,
01/02/00,17:00,198.5,200.7,1371.422,,
01/02/00,17:30,198.4,200.8,1371.421,,
01/02/00,18:00,198.4,200.8,1371.421,,
01/02/00,18:30,198.3,200.9,1371.420,,
01/02/00,19:00,198.1,201.1,1371.418,,
01/02/00,19:30,198.1,201.1,1371.418,,
01/02/00,20:00,198.1,201.2,1371.418,,
01/02/00,20:30,198.1,201.1,1371.418,,
01/02/00,21:00,198.1,201.1,1371.418,,
01/02/00,21:30,198.0,201.2,1371.417,,
01/02/00,22:00,198.1,201.1,1371.418,,
01/02/00,22:30,198.2,201.0,1371.419,,
01/02/00,23:00,198.1,201.1,1371.418,,
01/02/00,23:30,198.1,201.1,1371.418,,
01/03/00,0:00,198.0,201.2,1371.417,,
01/03/00,0:30,198.0,201.2,1371.417,,
01/03/00,1:00,198.1,201.1,1371.418,,
01/03/00,1:30,197.9,201.3,1371.416,,
01/03/00,2:00,197.9,201.3,1371.416,,
01/03/00,2:30,197.9,201.3,1371.416,,
01/03/00,3:00,197.8,201.4,1371.415,,
01/03/00,3:30,197.7,201.5,1371.414,,
01/03/00,4:00,197.8,201.4,1371.415,,
01/03/00,4:30,197.7,201.5,1371.414,,
01/03/00,5:00,197.7,201.5,1371.414,,
01/03/00,5:30,197.5,201.7,1371.412,,
01/03/00,6:00,197.5,201.7,1371.412,,
01/03/00,6:30,197.4,201.8,1371.411,,
01/03/00,7:00,197.4,201.8,1371.411,,
01/03/00,7:30,197.3,201.9,1371.410,,
01/03/00,8:00,197.3,201.9,1371.410,,
01/03/00,8:30,197.2,202.0,1371.409,,
01/03/00,9:00,197.2,202.0,1371.409,,
01/03/00,9:30,197.2,202.0,1371.409,,
01/03/00,10:00,197.3,201.9,1371.410,,
01/03/00,10:30,197.1,202.1,1371.408,,
01/03/00,11:00,197.3,201.9,1371.410,,
01/03/00,11:30,197.3,201.9,1371.410,,
01/03/00,12:00,197.4,201.8,1371.411,,
01/03/00,12:30,197.4,201.8,1371.411,,
01/03/00,13:00,197.3,201.9,1371.410,,
01/03/00,13:30,197.4,201.8,1371.411,,
01/03/00,14:00,197.4,201.8,1371.411,,
01/03/00,14:30,197.4,201.8,1371.411,,
01/03/00,15:00,197.3,201.9,1371.410,,
01/03/00,15:30,197.2,202.0,1371.409,,
01/03/00,16:00,197.1,202.1,1371.408,,
01/03/00,16:30,197.0,202.2,1371.407,,
01/03/00,17:00,196.9,202.3,1371.406,,
01/03/00,17:30,196.9,202.3,1371.406,,
01/03/00,18:00,196.8,202.4,1371.405,,
01/03/00,18:30,196.7,202.5,1371.404,,
01/03/00,19:00,196.6,202.6,1371.403,,
01/03/00,19:30,196.5,202.7,1371.402,,
01/03/00,20:00,196.4,202.8,1371.401,,
01/03/00,20:30,196.4,202.8,1371.401,,
01/03/00,21:00,196.3,202.9,1371.400,,
01/03/00,21:30,196.2,203.0,1371.399,,
01/03/00,22:00,196.3,202.9,1371.400,,
01/03/00,22:30,196.2,203.0,1371.399,,
01/03/00,23:00,196.1,203.1,1371.398,,
01/03/00,23:30,196.0,203.2,1371.397,,
01/04/00,0:00,196.0,203.2,1371.397,,
01/04/00,0:30,196.0,203.2,1371.397,,
01/04/00,1:00,196.0,203.2,1371.397,,
01/04/00,1:30,195.9,203.3,1371.396,,
01/04/00,2:00,196.0,203.2,1371.397,,
01/04/00,2:30,195.9,203.3,1371.396,,
01/04/00,3:00,195.9,203.3,1371.396,,
01/04/00,3:30,195.9,203.3,1371.396,,
01/04/00,4:00,195.9,203.3,1371.396,,
01/04/00,4:30,195.9,203.3,1371.396,,
01/04/00,5:00,195.9,203.3,1371.396,,
01/04/00,5:30,195.8,203.4,1371.395,,
01/04/00,6:00,195.8,203.4,1371.395,,
01/04/00,6:30,195.8,203.4,1371.395,,
01/04/00,7:00,195.7,203.5,1371.394,,
01/04/00,7:30,195.7,203.5,1371.394,,
01/04/00,8:00,195.7,203.5,1371.394,,
01/04/00,8:30,195.7,203.5,1371.394,,
01/04/00,9:00,195.7,203.5,1371.394,,
01/04/00,9:30,195.8,203.4,1371.395,,
01/04/00,10:00,195.9,203.3,1371.396,,
01/04/00,10:30,196.1,203.1,1371.398,,
01/04/00,11:00,196.3,202.9,1371.400,,
01/04/00,11:30,196.5,202.7,1371.402,,
01/04/00,12:00,196.7,202.5,1371.404,,
01/04/00,12:30,196.8,202.4,1371.405,,
01/04/00,13:00,196.9,202.3,1371.406,,
01/04/00,13:30,197.0,202.2,1371.407,,
01/04/00,14:00,197.1,202.1,1371.408,,
01/04/00,14:30,197.1,202.1,1371.408,,
01/04/00,15:00,197.1,202.1,1371.408,,
01/04/00,15:30,197.0,202.2,1371.407,,
01/04/00,16:00,197.0,202.2,1371.407,,
01/04/00,16:30,197.0,202.3,1371.407,,
01/04/00,17:00,196.9,202.3,1371.406,,
01/04/00,17:30,196.8,202.4,1371.405,,
01/04/00,18:00,196.7,202.5,1371.404,,
01/04/00,18:30,196.7,202.5,1371.404,,
01/04/00,19:00,196.6,202.6,1371.403,,
01/04/00,19:30,196.5,202.7,1371.402,,
01/04/00,20:00,196.5,202.7,1371.402,,
01/04/00,20:30,196.4,202.8,1371.401,,
01/04/00,21:00,196.4,202.8,1371.401,,
01/04/00,21:30,196.3,202.9,1371.400,,
01/04/00,22:00,196.3,202.9,1371.400,,
01/04/00,22:30,196.2,203.0,1371.399,,
01/04/00,23:00,196.2,203.0,1371.399,,
01/04/00,23:30,196.2,203.0,1371.399,,
01/05/00,0:00,196.3,202.9,1371.400,,
01/05/00,0:30,196.3,202.9,1371.400,,
01/05/00,1:00,196.2,203.0,1371.399,,
01/05/00,1:30,196.3,202.9,1371.400,,
01/05/00,2:00,196.3,202.9,1371.400,,
01/05/00,2:30,196.3,202.9,1371.400,,
01/05/00,3:00,196.4,202.8,1371.401,,
01/05/00,3:30,196.3,202.9,1371.400,,
01/05/00,4:00,196.3,202.9,1371.400,,
01/05/00,4:30,196.2,203.0,1371.399,,
01/05/00,5:00,196.2,203.0,1371.399,,
01/05/00,5:30,196.0,203.2,1371.397,,
01/05/00,6:00,196.0,203.2,1371.397,,
01/05/00,6:30,196.0,203.2,1371.397,,
01/05/00,7:00,196.0,203.2,1371.397,,
01/05/00,7:30,195.9,203.3,1371.396,,
01/05/00,8:00,195.9,203.3,1371.396,,
01/05/00,8:30,195.9,203.3,1371.396,,
01/05/00,9:00,195.9,203.3,1371.396,,
01/05/00,9:30,195.9,203.3,1371.396,,
01/05/00,10:00,196.0,203.2,1371.397,,
01/05/00,10:30,196.1,203.1,1371.398,,
01/05/00,11:00,196.2,203.0,1371.399,,
01/05/00,11:30,196.3,202.9,1371.400,,
01/05/00,12:00,196.5,202.7,1371.402,,
01/05/00,12:30,196.5,202.7,1371.402,,
01/05/00,13:00,196.6,202.6,1371.403,,
01/05/00,13:30,196.7,202.5,1371.404,,
01/05/00,14:00,196.8,202.4,1371.405,,
01/05/00,14:30,196.6,202.6,1371.403,,
01/05/00,15:00,196.7,202.5,1371.404,,
01/05/00,15:30,196.6,202.6,1371.403,,
01/05/00,16:00,196.6,202.6,1371.403,,
01/05/00,16:30,196.5,202.7,1371.402,,
01/05/00,17:00,196.4,202.8,1371.401,,
01/05/00,17:30,196.3,202.9,1371.400,,
01/05/00,18:00,196.2,203.0,1371.399,,
01/05/00,18:30,196.1,203.1,1371.398,,
01/05/00,19:00,195.9,203.3,1371.396,,
01/05/00,19:30,195.8,203.4,1371.395,,
01/05/00,20:00,195.8,203.4,1371.395,,
01/05/00,20:30,195.7,203.5,1371.394,,
01/05/00,21:00,195.5,203.7,1371.392,,
01/05/00,21:30,195.5,203.7,1371.392,,
01/05/00,22:00,195.4,203.8,1371.391,,
01/05/00,22:30,195.4,203.8,1371.391,,
01/05/00,23:00,195.3,203.9,1371.390,,
01/05/00,23:30,195.3,203.9,1371.390,,
01/06/00,0:00,195.4,203.8,1371.391,,
01/06/00,0:30,195.4,203.8,1371.391,,
01/06/00,1:00,195.4,203.8,1371.391,,
01/06/00,1:30,195.4,203.8,1371.391,,
01/06/00,2:00,195.3,203.9,1371.390,,
01/06/00,2:30,195.3,203.9,1371.390,,
01/06/00,3:00,195.4,203.8,1371.391,,
01/06/00,3:30,195.3,203.9,1371.390,,
01/06/00,4:00,195.3,203.9,1371.390,,
01/06/00,4:30,195.3,203.9,1371.390,,
01/06/00,5:00,195.2,204.0,1371.389,,
01/06/00,5:30,195.1,204.1,1371.388,,
01/06/00,6:00,195.1,204.1,1371.388,,
01/06/00,6:30,195.1,204.1,1371.388,,
01/06/00,7:00,195.0,204.2,1371.387,,
01/06/00,7:30,195.0,204.2,1371.387,,
01/06/00,8:00,194.9,204.3,1371.386,,
01/06/00,8:30,194.8,204.4,1371.385,,
01/06/00,9:00,194.8,204.4,1371.385,,
01/06/00,9:30,194.7,204.5,1371.384,,
01/06/00,10:00,194.7,204.5,1371.384,,
01/06/00,10:30,194.7,204.5,1371.384,,
01/06/00,11:00,194.9,204.3,1371.386,,
01/06/00,11:30,195.0,204.2,1371.387,,
01/06/00,12:00,195.1,204.1,1371.388,,
01/06/00,12:30,195.1,204.1,1371.388,,
01/06/00,13:00,195.1,204.1,1371.388,,
01/06/00,13:30,195.1,204.2,1371.388,,
01/06/00,14:00,195.0,204.2,1371.387,,
01/06/00,14:30,195.0,204.2,1371.387,,
01/06/00,15:00,194.9,204.3,1371.386,,
01/06/00,15:30,194.9,204.3,1371.386,,
01/06/00,16:00,194.8,204.4,1371.385,,
01/06/00,16:30,194.8,204.4,1371.385,,
01/06/00,17:00,194.9,204.3,1371.386,,
01/06/00,17:30,194.6,204.6,1371.383,,
01/06/00,18:00,194.6,204.6,1371.383,,
01/06/00,18:30,194.5,204.7,1371.382,,
01/06/00,19:00,194.5,204.7,1371.382,,
01/06/00,19:30,194.4,204.8,1371.381,,
01/06/00,20:00,194.3,204.9,1371.380,,
01/06/00,20:30,194.3,204.9,1371.380,,
01/06/00,21:00,194.3,204.9,1371.380,,
01/06/00,21:30,194.2,205.0,1371.379,,
01/06/00,22:00,194.2,205.0,1371.379,,
01/06/00,22:30,194.2,205.0,1371.379,,
01/06/00,23:00,194.3,204.9,1371.380,,
01/06/00,23:30,194.3,204.9,1371.380,,
01/07/00,0:00,194.4,204.8,1371.381,,
01/07/00,0:30,194.4,204.8,1371.381,,
01/07/00,1:00,194.5,204.7,1371.382,,
01/07/00,1:30,194.5,204.7,1371.382,,
01/07/00,2:00,194.5,204.7,1371.382,,
01/07/00,2:30,194.5,204.7,1371.382,,
01/07/00,3:00,194.7,204.5,1371.384,,
01/07/00,3:30,194.6,204.6,1371.383,,
01/07/00,4:00,194.6,204.6,1371.383,,
01/07/00,4:30,194.5,204.7,1371.382,,
01/07/00,5:00,194.7,204.5,1371.384,,
01/07/00,5:30,194.6,204.6,1371.383,,
01/07/00,6:00,194.6,204.6,1371.383,,
01/07/00,6:30,194.6,204.6,1371.383,,
01/07/00,7:00,194.6,204.6,1371.383,,
01/07/00,7:30,194.5,204.7,1371.382,,
01/07/00,8:00,194.6,204.6,1371.383,,
01/07/00,8:30,194.6,204.6,1371.383,,
01/07/00,9:00,194.5,204.7,1371.382,,
01/07/00,9:30,194.5,204.7,1371.382,,
01/07/00,10:00,194.7,204.5,1371.384,,
01/07/00,10:30,194.7,204.5,1371.384,,
01/07/00,11:00,194.8,204.4,1371.385,,
01/07/00,11:30,194.8,204.4,1371.385,,
01/07/00,12:00,195.0,204.2,1371.387,,
01/07/00,12:30,195.1,204.1,1371.388,,
01/07/00,13:00,195.2,204.0,1371.389,,
01/07/00,13:30,195.3,203.9,1371.390,,
01/07/00,14:00,195.4,203.8,1371.391,,
01/07/00,14:30,195.4,203.8,1371.391,,
01/07/00,15:00,195.4,203.8,1371.391,,
01/07/00,15:30,195.5,203.7,1371.392,,
01/07/00,16:00,195.4,203.8,1371.391,,
01/07/00,16:30,195.4,203.8,1371.391,,
01/07/00,17:00,195.4,203.8,1371.391,,
01/07/00,17:30,195.3,203.9,1371.390,,
01/07/00,18:00,195.2,204.0,1371.389,,
01/07/00,18:30,195.2,204.0,1371.389,,
01/07/00,19:00,195.1,204.1,1371.388,,
01/07/00,19:30,195.0,204.2,1371.387,,
01/07/00,20:00,195.0,204.2,1371.387,,
01/07/00,20:30,195.0,204.2,1371.387,,
01/07/00,21:00,195.0,204.2,1371.387,,
01/07/00,21:30,194.9,204.3,1371.386,,
01/07/00,22:00,194.9,204.3,1371.386,,
01/07/00,22:30,194.9,204.3,1371.386,,
01/07/00,23:00,194.9,204.3,1371.386,,
01/07/00,23:30,194.8,204.4,1371.385,,
01/08/00,0:00,194.8,204.4,1371.385,,
01/08/00,0:30,194.9,204.3,1371.386,,
01/08/00,1:00,194.9,204.3,1371.386,,
01/08/00,1:30,194.8,204.4,1371.385,,
01/08/00,2:00,194.9,204.3,1371.386,,
01/08/00,2:30,194.8,204.4,1371.385,,
01/08/00,3:00,194.8,204.4,1371.385,,
01/08/00,3:30,194.7,204.5,1371.384,,
01/08/00,4:00,194.7,204.5,1371.384,,
01/08/00,4:30,194.7,204.5,1371.384,,
01/08/00,5:00,194.7,204.5,1371.384,,
01/08/00,5:30,194.7,204.5,1371.384,,
01/08/00,6:00,194.7,204.5,1371.384,,
01/08/00,6:30,194.6,204.6,1371.383,,
01/08/00,7:00,194.5,204.7,1371.382,,
01/08/00,7:30,194.5,204.7,1371.382,,
01/08/00,8:00,194.5,204.7,1371.382,,
01/08/00,8:30,194.4,204.8,1371.381,,
01/08/00,9:00,194.4,204.8,1371.381,,
01/08/00,9:30,194.5,204.7,1371.382,,
01/08/00,10:00,194.7,204.6,1371.384,,
01/08/00,10:30,194.7,204.5,1371.384,,
01/08/00,11:00,194.8,204.4,1371.385,,
01/08/00,11:30,194.9,204.3,1371.386,,
01/08/00,12:00,195.1,204.1,1371.388,,
01/08/00,12:30,195.2,204.0,1371.389,,
01/08/00,13:00,195.3,203.9,1371.390,,
01/08/00,13:30,195.4,203.8,1371.391,,
01/08/00,14:00,195.4,203.8,1371.391,,
01/08/00,14:30,195.4,203.8,1371.391,,
01/08/00,15:00,195.4,203.8,1371.391,,
01/08/00,15:30,195.4,203.8,1371.391,,
01/08/00,16:00,195.4,203.8,1371.391,,
01/08/00,16:30,195.4,203.8,1371.391,,
01/08/00,17:00,195.4,203.8,1371.391,,
01/08/00,17:30,195.3,203.9,1371.390,,
01/08/00,18:00,195.3,203.9,1371.390,,
01/08/00,18:30,195.2,204.0,1371.389,,
01/08/00,19:00,195.1,204.1,1371.388,,
01/08/00,19:30,195.1,204.1,1371.388,,
01/08/00,20:00,195.1,204.1,1371.388,,
01/08/00,20:30,194.9,204.3,1371.386,,
01/08/00,21:00,194.9,204.3,1371.386,,
01/08/00,21:30,194.9,204.3,1371.386,,
01/08/00,22:00,194.9,204.3,1371.386,,
01/08/00,22:30,194.8,204.4,1371.385,,
01/08/00,23:00,194.8,204.4,1371.385,,
01/08/00,23:30,194.6,204.6,1371.383,,
01/09/00,0:00,194.6,204.6,1371.383,,
01/09/00,0:30,194.6,204.6,1371.383,,
01/09/00,1:00,194.5,204.7,1371.382,,
01/09/00,1:30,194.5,204.7,1371.382,,
01/09/00,2:00,194.4,204.8,1371.381,,
01/09/00,2:30,194.3,204.9,1371.380,,
01/09/00,3:00,194.3,204.9,1371.380,,
01/09/00,3:30,194.3,204.9,1371.380,,
01/09/00,4:00,194.3,204.9,1371.380,,
01/09/00,4:30,194.3,204.9,1371.380,,
01/09/00,5:00,194.2,205.0,1371.379,,
01/09/00,5:30,194.1,205.1,1371.378,,
01/09/00,6:00,194.1,205.1,1371.378,,
01/09/00,6:30,194.0,205.2,1371.377,,
01/09/00,7:00,194.0,205.2,1371.377,,
01/09/00,7:30,194.0,205.2,1371.377,,
01/09/00,8:00,194.0,205.2,1371.377,,
01/09/00,8:30,193.9,205.3,1371.376,,
01/09/00,9:00,193.8,205.4,1371.375,,
01/09/00,9:30,193.8,205.4,1371.375,,
01/09/00,10:00,194.0,205.2,1371.377,,
01/09/00,10:30,194.0,205.2,1371.377,,
01/09/00,11:00,194.1,205.1,1371.378,,
01/09/00,11:30,194.3,204.9,1371.380,,
01/09/00,12:00,194.3,204.9,1371.380,,
01/09/00,12:30,194.5,204.7,1371.382,,
01/09/00,13:00,194.5,204.7,1371.382,,
01/09/00,13:30,194.6,204.6,1371.383,,
01/09/00,14:00,194.6,204.6,1371.383,,
01/09/00,14:30,194.5,204.7,1371.382,,
01/09/00,15:00,194.6,204.6,1371.383,,
01/09/00,15:30,194.6,204.6,1371.383,,
01/09/00,16:00,194.4,204.8,1371.381,,
01/09/00,16:30,194.4,204.8,1371.381,,
01/09/00,17:00,194.4,204.8,1371.381,,
01/09/00,17:30,194.4,204.8,1371.381,,
01/09/00,18:00,194.1,205.1,1371.378,,
01/09/00,18:30,194.1,205.1,1371.378,,
01/09/00,19:00,194.1,205.1,1371.378,,
01/09/00,19:30,194.1,205.1,1371.378,,
01/09/00,20:00,194.1,205.1,1371.378,,
01/09/00,20:30,194.0,205.2,1371.377,,
01/09/00,21:00,194.0,205.2,1371.377,,
01/09/00,21:30,193.9,205.3,1371.376,,
01/09/00,22:00,193.8,205.4,1371.375,,
01/09/00,22:30,193.7,205.5,1371.374,,
01/09/00,23:00,193.8,205.4,1371.375,,
01/09/00,23:30,193.7,205.5,1371.374,,
01/10/00,0:00,193.8,205.4,1371.375,,
01/10/00,0:30,193.8,205.4,1371.375,,
01/10/00,1:00,193.7,205.5,1371.374,,
01/10/00,1:30,193.8,205.4,1371.375,,
01/10/00,2:00,193.6,205.6,1371.373,,
01/10/00,2:30,193.6,205.6,1371.373,,
01/10/00,3:00,193.6,205.6,1371.373,,
01/10/00,3:30,193.6,205.6,1371.373,,
01/10/00,4:00,193.6,205.6,1371.373,,
01/10/00,4:30,193.6,205.6,1371.373,,
01/10/00,5:00,193.5,205.7,1371.372,,
01/10/00,5:30,193.5,205.7,1371.372,,
01/10/00,6:00,193.4,205.8,1371.371,,
01/10/00,6:30,193.4,205.8,1371.371,,
01/10/00,7:00,193.3,205.9,1371.370,,
01/10/00,7:30,193.3,205.9,1371.370,,
01/10/00,8:00,193.2,206.0,1371.369,,
01/10/00,8:30,193.2,206.0,1371.369,,
01/10/00,9:00,193.2,206.0,1371.369,,
01/10/00,9:30,193.3,205.9,1371.370,,
01/10/00,10:00,193.4,205.8,1371.371,,
01/10/00,10:30,193.5,205.7,1371.372,,
01/10/00,11:00,193.6,205.6,1371.373,,
01/10/00,11:30,193.7,205.5,1371.374,,
01/10/00,12:00,193.8,205.4,1371.375,,
01/10/00,12:30,193.9,205.3,1371.376,,
01/10/00,13:00,194.0,205.2,1371.377,,
01/10/00,13:30,194.2,205.0,1371.379,,
01/10/00,14:00,194.2,205.0,1371.379,,
01/10/00,14:30,194.2,205.0,1371.379,,
01/10/00,15:00,194.1,205.1,1371.378,,
01/10/00,15:30,193.9,205.3,1371.376,,
01/10/00,16:00,193.9,205.3,1371.376,,
01/10/00,16:30,193.9,205.3,1371.376,,
01/10/00,17:00,193.9,205.3,1371.376,,
01/10/00,17:30,193.9,205.3,1371.376,,
01/10/00,18:00,193.8,205.4,1371.375,,
01/10/00,18:30,193.8,205.4,1371.375,,
01/10/00,19:00,193.8,205.4,1371.375,,
01/10/00,19:30,193.7,205.5,1371.374,,
01/10/00,20:00,193.6,205.6,1371.373,,
01/10/00,20:30,193.6,205.6,1371.373,,
01/10/00,21:00,193.5,205.7,1371.372,,
01/10/00,21:30,193.5,205.7,1371.372,,
01/10/00,22:00,193.5,205.7,1371.372,,
01/10/00,22:30,193.5,205.7,1371.372,,
01/10/00,23:00,193.5,205.7,1371.372,,
01/10/00,23:30,193.3,205.9,1371.370,,
01/11/00,0:00,193.5,205.7,1371.372,,
01/11/00,0:30,193.5,205.7,1371.372,,
01/11/00,1:00,193.5,205.7,1371.372,,
01/11/00,1:30,193.5,205.7,1371.372,,
01/11/00,2:00,193.4,205.8,1371.371,,
01/11/00,2:30,193.3,205.9,1371.370,,
01/11/00,3:00,193.5,205.7,1371.372,,
01/11/00,3:30,193.4,205.8,1371.371,,
01/11/00,4:00,193.5,205.7,1371.372,,
01/11/00,4:30,193.6,205.6,1371.373,,
01/11/00,5:00,193.5,205.7,1371.372,,
01/11/00,5:30,193.5,205.7,1371.372,,
01/11/00,6:00,193.5,205.7,1371.372,,
01/11/00,6:30,193.5,205.7,1371.372,,
01/11/00,7:00,193.5,205.7,1371.372,,
01/11/00,7:30,193.6,205.6,1371.373,,
01/11/00,8:00,193.6,205.6,1371.373,,
01/11/00,8:30,193.4,205.8,1371.371,,
01/11/00,9:00,193.5,205.7,1371.372,,
01/11/00,9:30,193.5,205.7,1371.372,,
01/11/00,10:00,193.6,205.6,1371.373,,
01/11/00,10:30,193.8,205.4,1371.375,,
01/11/00,11:00,193.9,205.3,1371.376,,
01/11/00,11:30,194.0,205.2,1371.377,,
01/11/00,12:00,194.2,205.0,1371.379,,
01/11/00,12:30,194.3,204.9,1371.380,,
01/11/00,13:00,194.5,204.7,1371.382,,
01/11/00,13:30,194.6,204.6,1371.383,,
01/11/00,14:00,194.7,204.5,1371.384,,No data until 19:30
01/11/00,14:30,,,,,
01/11/00,15:00,,,,,
01/11/00,15:30,,,,,
01/11/00,16:00,,,,,
01/11/00,16:30,,,,,
01/11/00,17:00,,,,,
01/11/00,17:30,,,,,
01/11/00,18:00,,,,,
01/11/00,18:30,,,,,
01/11/00,19:00,,,,,
01/11/00,19:30,194.7,204.5,1371.384,,
01/11/00,20:00,194.7,204.5,1371.384,,
01/11/00,20:30,194.5,204.7,1371.382,,
01/11/00,21:00,194.4,204.8,1371.381,,
01/11/00,21:30,194.4,204.8,1371.381,,
01/11/00,22:00,194.3,204.9,1371.380,,
01/11/00,22:30,194.2,205.0,1371.379,,
01/11/00,23:00,194.2,205.0,1371.379,,
01/11/00,23:30,194.2,205.0,1371.379,,
01/12/00,0:00,194.2,205.0,1371.379,,
01/12/00,0:30,194.2,205.0,1371.379,,
01/12/00,1:00,194.2,205.0,1371.379,,
01/12/00,1:30,194.2,205.0,1371.379,,
01/12/00,2:00,194.2,205.0,1371.379,,
01/12/00,2:30,194.2,205.0,1371.379,,
01/12/00,3:00,194.1,205.1,1371.378,,
01/12/00,3:30,194.1,205.1,1371.378,,
01/12/00,4:00,194.1,205.1,1371.378,,
01/12/00,4:30,194.1,205.1,1371.378,,
01/12/00,5:00,194.0,205.2,1371.377,,
01/12/00,5:30,194.0,205.2,1371.377,,
01/12/00,6:00,194.0,205.2,1371.377,,
01/12/00,6:30,194.0,205.2,1371.377,,
01/12/00,7:00,194.0,205.2,1371.377,,
01/12/00,7:30,193.9,205.3,1371.376,,
01/12/00,8:00,193.9,205.3,1371.376,,
01/12/00,8:30,193.9,205.3,1371.376,,
01/12/00,9:00,193.8,205.4,1371.375,,
01/12/00,9:30,193.9,205.3,1371.376,,
01/12/00,10:00,194.0,205.2,1371.377,,
01/12/00,10:30,194.1,205.1,1371.378,,
01/12/00,11:00,194.2,205.0,1371.379,,
01/12/00,11:30,194.3,204.9,1371.380,,
01/12/00,12:00,194.4,204.8,1371.381,,
01/12/00,12:30,194.6,204.6,1371.383,,
01/12/00,13:00,194.6,204.6,1371.383,,
01/12/00,13:30,194.7,204.5,1371.384,,
01/12/00,14:00,194.8,204.4,1371.385,,
01/12/00,14:30,194.8,204.4,1371.385,,
01/12/00,15:00,194.7,204.5,1371.384,,
01/12/00,15:30,194.6,204.6,1371.383,,
01/12/00,16:00,194.6,204.6,1371.383,,
01/12/00,16:30,194.5,204.7,1371.382,,
01/12/00,17:00,194.6,204.6,1371.383,,
01/12/00,17:30,194.5,204.7,1371.382,,
01/12/00,18:00,194.3,204.9,1371.380,,
01/12/00,18:30,194.2,205.0,1371.379,,
01/12/00,19:00,194.2,205.0,1371.379,,
01/12/00,19:30,194.2,205.0,1371.379,,
01/12/00,20:00,194.1,205.1,1371.378,,
01/12/00,20:30,194.1,205.1,1371.378,,
01/12/00,21:00,194.0,205.2,1371.377,,
01/12/00,21:30,194.0,205.2,1371.377,,
01/12/00,22:00,194.0,205.2,1371.377,,
01/12/00,22:30,193.9,205.3,1371.376,,
01/12/00,23:00,193.8,205.4,1371.375,,
01/12/00,23:30,193.8,205.4,1371.375,,
01/13/00,0:00,193.8,205.4,1371.375,,
01/13/00,0:30,193.8,205.4,1371.375,,
01/13/00,1:00,193.8,205.4,1371.375,,
01/13/00,1:30,193.8,205.4,1371.375,,
01/13/00,2:00,193.7,205.5,1371.374,,
01/13/00,2:30,193.6,205.6,1371.373,,
01/13/00,3:00,193.6,205.6,1371.373,,
01/13/00,3:30,193.7,205.5,1371.374,,
01/13/00,4:00,193.7,205.5,1371.374,,
01/13/00,4:30,193.6,205.6,1371.373,,
01/13/00,5:00,193.6,205.6,1371.373,,
01/13/00,5:30,193.5,205.7,1371.372,,
01/13/00,6:00,193.5,205.7,1371.372,,
01/13/00,6:30,193.5,205.7,1371.372,,
01/13/00,7:00,193.4,205.8,1371.371,,
01/13/00,7:30,193.4,205.8,1371.371,,
01/13/00,8:00,193.4,205.8,1371.371,,
01/13/00,8:30,193.3,205.9,1371.370,,
01/13/00,9:00,193.4,205.8,1371.371,,
01/13/00,9:30,193.4,205.8,1371.371,,
01/13/00,10:00,193.6,205.6,1371.373,,
01/13/00,10:30,193.7,205.5,1371.374,,
01/13/00,11:00,193.9,205.3,1371.376,,
01/13/00,11:30,194.0,205.2,1371.377,,
01/13/00,12:00,194.1,205.1,1371.378,,
01/13/00,12:30,194.3,204.9,1371.380,,
01/13/00,13:00,194.3,204.9,1371.380,,
01/13/00,13:30,194.5,204.7,1371.382,,
01/13/00,14:00,194.5,204.7,1371.382,,
01/13/00,14:30,194.5,204.7,1371.382,,
01/13/00,15:00,194.5,204.7,1371.382,,
01/13/00,15:30,194.5,204.7,1371.382,,
01/13/00,16:00,194.5,204.7,1371.382,,
01/13/00,16:30,194.4,204.8,1371.381,,
01/13/00,17:00,194.4,204.8,1371.381,,
01/13/00,17:30,194.5,204.7,1371.382,,
01/13/00,18:00,194.3,204.9,1371.380,,
01/13/00,18:30,194.3,204.9,1371.380,,